SCP
0 0 0 0 0 0 0 0 0 0 0 0 0 0 0 0 0 0 0 0 0 0 0 0 0 0 0 0 0 0 0 0 0 0 0 0 0 0 0 0 0 0 0 0
0 0 0 0 0 0 0 0 0 0 0 0 0 0 0 0 0 0 0 0 0 0 0 0 0 0 0 0 0 0 0 0 0 0 0 0 0 0 0 0 0 0 0 0
0 0 0 0 0 0 0 0 0 0 0 0 0 0 -0 0 0 0 0 0 0 0 0 0 0 0 0 0 0 0 0 0 0 0 0 0 0 0 0 0 0 0 0 0
0 0 0 0 0 0 0 0 0 0 0 0 -0 -0 0 0 0 0 0 0 0 0 0 0 0 0 0 0 0 0 0 0 0 0 0 0 0 0 0 0 0 0 0 0
0 0 0 0 0 0 0 0 0 0 0 0 0 0 -0 -0 0 0 0 0 0 0 0 0 0 0 0 0 0 0 0 0 0 0 0 0 0 0 0 0 0 0 0 0
0 0 0 0 0 0 0 0 0 0 0 0 0 0 -0 0 -0 -0 0 0 0 0 0 0 0 0 0 0 0 0 0 0 0 0 0 0 0 0 0 0 0 0 0 0
0 0 0 0 0 0 0 0 0 0 0 0 0 0 0 0 0 0 0 0 0 0 0 0 0 0 0 0 0 0 0 0 0 0 0 0 0 0 0 0 0 0 0 0
0 0 0 0 0 0 0 0 0 0 0 0 0 0 0 0 0 0 0 0 0 0 0 -0 0 0 0 0 0 0 0 0 0 0 0 0 0 0 0 0 0 0 0 0
0 0 0 0 0 0 0 0 0 0 0 0 0 0 0 0 0 0 0 0 0 -0 -0 0 0 0 0 0 0 0 0 0 0 0 0 0 0 0 0 0 0 0 0 0
0 0 0 0 0 0 0 0 0 0 0 0 0 0 0 0 0 0 0 0 0 0 0 0 0 0 0 0 0 0 0 0 0 0 0 0 0 0 0 0 0 0 0 0
0 0 0 0 0 0 0 0 0 0 0 0 0 0 0 0 0 0 0 0 0 0 -0 -0 0 0 0 0 0 0 0 0 0 0 0 0 0 0 0 0 0 0 0 0
0 0 0 0 0 0 0 0 0 0 0 0 0 0 0 0 0 0 0 0 -0 -0 0 0 0 0 0 0 0 0 0 0 0 0 0 0 0 0 0 0 0 0 0 0
0 0 0 0 0 0 0 0 0 0 0 0 0 0 0 0 0 0 0 -0 0 0 0 0 0 0 0 0 0 0 -0 0 0 0 0 0 0 0 0 0 0 0 0 0
0 0 0 0 0 0 0 0 0 0 0 0 0 0 0 0 0 0 0 0 0 0 0 0 0 0 0 0 0 0 0 0 0 0 0 0 0 0 0 0 0 0 0 0
0 0 0 0 0 0 0 0 0 0 0 0 0 0 0 0 0 0 0 0 0 0 0 0 0 0 0 0 0 0 0 0 0 0 0 0 0 0 0 0 0 0 0 0
0 0 0 0 0 0 0 0 0 0 0 0 0 0 0 0 0 0 0 0 0 0 0 0 0 0 0 0 0 0 0 0 0 0 0 0 0 0 0 0 0 0 0 0
0 0 0 0 0 0 0 0 0 0 0 0 0 0 0 0 0 0 0 0 0 0 0 0 0 0 0 0 0 0 0 0 0 0 0 0 0 0 0 0 0 0 0 0
0 0 0 0 0 0 0 0 0 0 0 0 0 0 0 0 0 0 0 0 0 0 0 0 0 0 0 0 0 0 0 0 0 0 0 0 0 0 0 0 0 0 0 0
0 0 0 0 0 0 0 0 0 0 0 0 0 0 0 0 0 0 0 0 0 0 0 0 0 0 0 0 0 0 0 0 0 0 0 0 0 0 0 0 0 0 0 0
0 0 0 0 0 0 0 0 0 0 0 0 0 0 0 0 0 0 0 0 0 0 0 0 0 0 0 0 0 0 0 0 0 0 0 0 0 0 0 0 0 0 0 0
0 0 0 0 0 0 0 0 0 0 0 0 0 0 0 0 0 0 0 0 0 0 0 0 0 0 0 0 0 0 0 0 0 0 0 0 0 0 0 0 0 0 0 0
0 0 0 0 0 0 0 0 0 0 0 0 0 0 0 0 -0 0 0 0 0 0 0 0 0 0 0 0 0 0 0 0 0 0 0 0 0 0 0 0 0 0 0 0
0 0 0 0 0 0 0 0 0 0 0 0 0 0 0 -0 -0 -0 -0 -0 0 0 0 0 0 0 0 0 0 0 0 0 0 0 0 0 0 0 0 0 0 0 0 0
0 0 0 0 0 0 0 0 0 0 0 0 0 0 0 0 0 -0 -0 0 0 0 0 0 0 0 0 0 0 0 0 0 0 0 0 0 0 0 0 0 0 0 0 0
0 0 0 0 0 0 0 0 0 0 0 0 0 0 0 0 0 0 -0 0 0 0 0 0 0 0 0 0 0 0 0 0 0 0 0 0 0 0 0 0 0 0 0 0
0 0 0 0 0 0 0 0 0 0 0 0 0 0 0 0 0 0 0 0 0 -0 0 0 0 0 0 0 0 0 0 0 0 0 0 0 0 0 0 0 0 0 0 0
Wind_Speed_500mb
28 19 26 36 34 22 7 15 20 8 8 16 33 39 32 41 48 49 56 55 54 55 59 55 62 61 65 71 74 73 73 72 76 80 83 84 84 81 81 79 74 70 68 66
15 33 28 15 27 30 21 16 20 18 19 18 37 51 46 54 65 63 62 65 65 69 71 75 79 77 79 76 76 81 84 81 82 84 85 87 87 89 88 84 82 79 78 75
34 5 30 21 21 29 31 32 28 28 22 32 39 47 38 21 36 58 58 71 76 75 70 69 62 63 70 79 88 89 88 89 88 88 90 93 93 91 93 95 92 91 87 84
28 26 10 28 38 31 30 17 23 23 18 13 3 20 35 31 29 31 55 57 59 53 56 63 68 62 61 77 80 85 94 94 97 94 98 104 108 111 107 102 95 95 94 93
21 26 33 21 26 26 16 12 14 20 22 26 32 18 13 11 19 29 44 43 46 47 46 47 51 56 57 60 68 72 82 95 105 101 105 106 113 117 113 107 104 102 98 97
16 2 26 20 20 32 17 13 5 7 10 16 28 23 38 29 25 20 23 31 31 31 31 42 61 62 56 56 60 64 70 79 89 106 116 116 115 118 113 111 115 111 106 101
20 23 7 16 21 18 23 26 8 8 12 19 2 22 43 13 17 20 26 36 32 30 40 44 57 55 64 72 72 76 77 81 86 94 106 118 123 122 122 118 122 117 116 111
25 17 34 28 23 20 44 35 12 17 13 12 8 30 21 4 19 38 34 37 37 44 44 45 51 55 58 66 67 65 74 83 82 93 103 105 112 125 124 119 122 122 122 116
23 21 23 25 21 31 33 34 24 9 2 9 17 32 39 36 33 39 49 32 28 36 47 45 45 49 51 65 55 61 75 78 82 88 98 107 106 117 126 123 120 122 119 117
13 8 2 26 30 30 24 22 14 17 14 19 26 40 38 17 33 34 36 39 32 36 42 55 78 79 66 68 77 91 87 84 86 86 92 103 111 107 117 121 121 120 123 121
16 8 9 17 26 36 21 18 17 17 25 13 20 28 27 31 24 22 21 31 44 61 63 72 80 80 83 81 100 88 80 82 89 87 94 103 111 114 112 118 117 112 118 118
30 12 13 22 9 30 43 42 38 18 22 25 34 47 24 41 42 50 54 53 49 59 78 78 79 83 94 96 90 78 77 89 93 87 91 102 105 110 112 114 111 106 114 116
25 14 11 8 10 7 26 38 43 41 25 35 32 33 26 36 44 57 58 62 66 73 78 77 80 80 82 89 97 96 94 98 100 88 83 96 103 103 107 108 105 105 110 108
48 20 30 32 9 21 27 35 43 41 31 49 40 58 64 64 61 50 64 64 76 86 86 92 90 91 90 87 93 103 101 102 101 93 79 88 98 102 101 102 100 102 108 104
28 24 39 43 29 13 16 30 48 52 55 38 52 45 63 69 51 59 76 88 89 91 93 95 93 94 95 96 91 92 91 84 93 88 75 85 90 93 91 94 96 98 105 103
25 11 26 27 38 31 28 42 33 45 51 48 56 53 64 85 92 83 82 84 77 84 95 100 104 97 93 90 90 96 85 87 88 80 77 75 81 82 89 91 91 93 99 97
31 20 13 12 17 23 24 62 48 45 47 43 43 58 61 54 53 76 79 66 77 89 102 104 104 98 87 85 88 100 85 88 82 73 72 68 77 80 85 87 87 88 93 92
38 30 8 6 10 17 12 6 38 50 53 51 53 56 58 59 76 87 67 80 86 86 90 99 95 96 82 83 88 88 83 87 71 70 66 61 71 77 81 81 76 85 88 85
32 26 11 10 15 18 42 19 15 21 36 39 47 58 62 69 66 60 56 51 55 91 90 92 88 85 87 80 82 85 76 70 61 57 55 53 57 70 69 70 72 78 83 75
18 28 16 9 15 21 6 10 30 10 36 22 42 38 38 41 22 24 58 63 94 95 95 94 84 76 77 69 66 66 60 54 52 46 37 46 51 41 50 63 80 79 73 71
16 12 28 19 14 18 14 17 22 16 10 10 28 27 19 18 31 61 77 96 91 88 95 86 84 71 74 61 55 56 53 46 39 28 26 32 41 42 57 61 73 78 76 78
25 22 16 14 16 35 30 16 23 23 17 24 12 11 19 39 50 67 73 78 94 101 92 84 76 63 66 51 53 51 47 41 32 25 20 33 40 48 62 66 70 71 73 70
17 20 19 28 22 7 54 31 60 41 23 30 37 44 52 58 67 62 76 97 99 99 90 78 63 60 57 43 55 44 40 36 29 31 27 35 33 45 48 53 60 63 66 68
9 18 11 10 43 23 40 62 51 45 41 41 52 53 53 52 71 85 89 93 91 89 83 67 54 58 51 47 44 41 36 33 35 32 33 36 41 44 51 58 61 64 66 64
9 25 22 24 35 11 35 45 57 57 49 49 51 49 56 58 72 70 80 86 87 86 79 63 54 54 53 46 39 39 36 31 41 47 46 40 44 53 58 57 56 56 52 52
16 27 22 28 21 30 42 49 51 56 47 37 50 63 59 54 66 74 80 81 83 81 74 61 54 48 49 47 44 41 39 38 45 49 55 54 55 59 62 62 58 46 43 42
Wind_Direction_500mb
193 203 210 211 218 248 257 239 244 232 245 303 270 274 271 272 274 266 262 263 264 265 263 260 258 254 254 253 253 251 247 242 236 233 233 233 234 235 235 237 236 234 232 230
191 223 219 230 220 226 228 232 238 258 272 286 287 282 278 267 261 259 260 263 261 262 261 259 257 255 255 252 253 253 251 244 240 239 239 238 239 238 238 238 238 237 235 232
204 194 216 212 209 216 227 235 246 260 282 272 290 285 265 250 250 251 250 249 253 251 256 262 262 257 255 255 251 251 250 248 246 246 240 240 238 239 239 238 236 235 236 235
222 203 164 200 220 214 230 228 245 255 272 268 62 293 279 275 261 243 247 243 251 257 257 262 267 264 258 263 262 258 256 254 251 249 244 242 240 240 241 239 238 236 233 234
195 195 193 200 206 198 219 180 232 246 250 274 260 269 254 262 261 248 251 249 248 254 257 267 278 286 287 280 280 276 269 260 257 253 250 247 245 245 246 243 242 239 236 234
222 166 205 199 193 196 157 149 138 194 234 256 226 225 265 247 255 268 251 248 253 256 272 287 297 293 289 293 289 284 274 268 264 261 257 252 252 250 241 239 241 242 238 234
195 204 167 165 171 192 185 168 176 209 215 246 206 218 250 297 286 248 257 274 276 275 283 287 294 292 295 298 297 293 283 278 274 268 261 259 255 253 246 242 243 242 240 237
196 206 199 182 194 182 198 186 195 215 219 268 199 230 253 250 231 251 271 283 286 285 285 285 290 294 301 311 307 302 294 283 281 269 264 262 260 253 246 241 242 244 244 244
200 226 187 194 185 173 193 218 211 311 134 280 238 257 272 253 247 254 270 287 291 295 300 300 302 306 296 315 309 309 303 294 286 273 261 260 260 251 246 244 243 241 244 247
186 193 267 181 199 213 193 169 190 217 230 238 249 256 253 279 281 283 285 300 297 301 305 305 307 303 292 297 301 305 305 298 291 281 270 253 257 257 250 243 240 239 244 245
182 222 144 172 201 194 190 187 220 212 226 242 267 259 256 271 275 286 300 288 293 298 301 301 299 295 293 291 300 302 302 299 293 279 267 258 250 250 250 239 236 235 240 241
194 224 191 198 173 228 219 210 200 214 214 232 249 263 278 286 289 291 289 294 301 300 291 289 288 292 295 296 297 296 304 311 305 289 267 255 249 243 240 238 233 231 236 239
160 190 178 195 234 193 221 218 225 229 247 243 234 264 280 286 287 286 293 299 292 290 290 293 290 286 285 286 290 293 291 298 305 296 270 250 244 237 236 236 231 228 234 234
165 200 214 220 140 178 211 216 219 220 229 242 240 259 278 279 276 298 294 291 287 287 296 292 290 288 287 285 284 294 294 294 298 295 274 249 240 237 234 231 229 227 230 231
188 226 225 245 254 203 214 225 222 221 230 232 255 248 264 271 287 284 289 289 292 295 297 295 295 292 287 283 282 290 298 296 299 289 274 250 239 237 232 229 227 225 229 230
198 231 215 242 237 239 251 244 228 225 235 242 250 256 255 274 279 281 284 287 297 298 297 300 301 296 288 282 283 293 295 295 297 284 275 252 238 236 231 226 224 223 225 224
183 182 164 226 211 214 250 243 231 232 235 231 238 247 259 262 272 278 286 299 295 297 298 301 301 301 291 281 279 290 292 294 293 281 271 253 240 236 231 227 223 222 223 219
187 184 162 153 150 210 258 21 216 222 232 226 240 252 255 266 271 277 295 291 291 295 304 308 301 305 300 288 290 294 287 287 284 275 267 244 240 236 229 225 226 222 221 221
196 174 171 181 207 308 286 222 189 179 244 222 230 245 257 266 279 288 288 291 299 305 308 310 311 307 306 299 295 286 285 281 274 268 262 239 236 233 231 233 227 218 215 212
189 194 191 153 215 230 337 163 192 157 266 206 221 239 252 273 273 291 310 307 314 316 316 317 313 304 307 304 292 286 280 274 269 261 253 230 230 241 239 233 220 214 204 205
167 173 198 196 224 257 214 165 132 201 273 155 204 226 248 250 275 298 306 314 319 316 317 316 313 301 311 293 285 281 268 260 262 245 223 229 223 216 225 215 209 204 195 194
169 173 196 180 215 256 175 194 209 241 256 278 236 270 285 293 294 304 311 312 322 320 321 318 306 296 308 285 279 271 254 248 239 229 204 219 206 198 202 198 193 186 184 182
196 196 188 192 213 141 186 208 215 241 253 259 277 286 299 300 302 307 313 315 317 316 319 317 304 291 292 282 281 260 245 236 214 200 188 194 182 180 173 183 186 182 184 182
235 191 209 141 248 220 218 225 234 242 248 265 278 289 297 302 306 310 314 313 315 315 314 313 305 290 284 287 271 242 230 213 213 197 180 176 179 176 174 181 180 178 179 178
173 144 212 240 262 249 235 239 244 252 261 270 280 287 296 302 305 308 311 312 313 312 310 304 297 293 283 285 257 227 215 208 197 183 171 172 176 175 172 174 174 177 177 182
188 208 195 225 224 226 258 246 249 255 262 270 284 289 293 303 307 307 306 310 310 309 306 301 296 289 271 266 251 215 207 202 204 190 171 172 176 176 169 167 161 167 171 172
Wind_Speed_850mb
28 19 26 36 34 22 7 15 20 8 8 16 33 39 32 41 48 49 56 55 54 55 59 55 62 61 65 71 74 73 73 72 76 80 83 84 84 81 81 79 74 70 68 66
15 33 28 15 27 30 21 16 20 18 19 18 37 51 46 54 65 63 62 65 65 69 71 75 79 77 79 76 76 81 84 81 82 84 85 87 87 89 88 84 82 79 78 75
34 5 30 21 21 29 31 32 28 28 22 32 39 47 38 21 36 58 58 71 76 75 70 69 62 63 70 79 88 89 88 89 88 88 90 93 93 91 93 95 92 91 87 84
28 26 10 28 38 31 30 17 23 23 18 13 3 20 35 31 29 31 55 57 59 53 56 63 68 62 61 77 80 85 94 94 97 94 98 104 108 111 107 102 95 95 94 93
21 26 33 21 26 26 16 12 14 20 22 26 32 18 13 11 19 29 44 43 46 47 46 47 51 56 57 60 68 72 82 95 105 101 105 106 113 117 113 107 104 102 98 97
16 2 26 20 20 32 17 13 5 7 10 16 28 23 38 29 25 20 23 31 31 31 31 42 61 62 56 56 60 64 70 79 89 106 116 116 115 118 113 111 115 111 106 101
20 23 7 16 21 18 23 26 8 8 12 19 2 22 43 13 17 20 26 36 32 30 40 44 57 55 64 72 72 76 77 81 86 94 106 118 123 122 122 118 122 117 116 111
25 17 34 28 23 20 44 35 12 17 13 12 8 30 21 4 19 38 34 37 37 44 44 45 51 55 58 66 67 65 74 83 82 93 103 105 112 125 124 119 122 122 122 116
23 21 23 25 21 31 33 34 24 9 2 9 17 32 39 36 33 39 49 32 28 36 47 45 45 49 51 65 55 61 75 78 82 88 98 107 106 117 126 123 120 122 119 117
13 8 2 26 30 30 24 22 14 17 14 19 26 40 38 17 33 34 36 39 32 36 42 55 78 79 66 68 77 91 87 84 86 86 92 103 111 107 117 121 121 120 123 121
16 8 9 17 26 36 21 18 17 17 25 13 20 28 27 31 24 22 21 31 44 61 63 72 80 80 83 81 100 88 80 82 89 87 94 103 111 114 112 118 117 112 118 118
30 12 13 22 9 30 43 42 38 18 22 25 34 47 24 41 42 50 54 53 49 59 78 78 79 83 94 96 90 78 77 89 93 87 91 102 105 110 112 114 111 106 114 116
25 14 11 8 10 7 26 38 43 41 25 35 32 33 26 36 44 57 58 62 66 73 78 77 80 80 82 89 97 96 94 98 100 88 83 96 103 103 107 108 105 105 110 108
48 20 30 32 9 21 27 35 43 41 31 49 40 58 64 64 61 50 64 64 76 86 86 92 90 91 90 87 93 103 101 102 101 93 79 88 98 102 101 102 100 102 108 104
28 24 39 43 29 13 16 30 48 52 55 38 52 45 63 69 51 59 76 88 89 91 93 95 93 94 95 96 91 92 91 84 93 88 75 85 90 93 91 94 96 98 105 103
25 11 26 27 38 31 28 42 33 45 51 48 56 53 64 85 92 83 82 84 77 84 95 100 104 97 93 90 90 96 85 87 88 80 77 75 81 82 89 91 91 93 99 97
31 20 13 12 17 23 24 62 48 45 47 43 43 58 61 54 53 76 79 66 77 89 102 104 104 98 87 85 88 100 85 88 82 73 72 68 77 80 85 87 87 88 93 92
38 30 8 6 10 17 12 6 38 50 53 51 53 56 58 59 76 87 67 80 86 86 90 99 95 96 82 83 88 88 83 87 71 70 66 61 71 77 81 81 76 85 88 85
32 26 11 10 15 18 42 19 15 21 36 39 47 58 62 69 66 60 56 51 55 91 90 92 88 85 87 80 82 85 76 70 61 57 55 53 57 70 69 70 72 78 83 75
18 28 16 9 15 21 6 10 30 10 36 22 42 38 38 41 22 24 58 63 94 95 95 94 84 76 77 69 66 66 60 54 52 46 37 46 51 41 50 63 80 79 73 71
16 12 28 19 14 18 14 17 22 16 10 10 28 27 19 18 31 61 77 96 91 88 95 86 84 71 74 61 55 56 53 46 39 28 26 32 41 42 57 61 73 78 76 78
25 22 16 14 16 35 30 16 23 23 17 24 12 11 19 39 50 67 73 78 94 101 92 84 76 63 66 51 53 51 47 41 32 25 20 33 40 48 62 66 70 71 73 70
17 20 19 28 22 7 54 31 60 41 23 30 37 44 52 58 67 62 76 97 99 99 90 78 63 60 57 43 55 44 40 36 29 31 27 35 33 45 48 53 60 63 66 68
9 18 11 10 43 23 40 62 51 45 41 41 52 53 53 52 71 85 89 93 91 89 83 67 54 58 51 47 44 41 36 33 35 32 33 36 41 44 51 58 61 64 66 64
9 25 22 24 35 11 35 45 57 57 49 49 51 49 56 58 72 70 80 86 87 86 79 63 54 54 53 46 39 39 36 31 41 47 46 40 44 53 58 57 56 56 52 52
16 27 22 28 21 30 42 49 51 56 47 37 50 63 59 54 66 74 80 81 83 81 74 61 54 48 49 47 44 41 39 38 45 49 55 54 55 59 62 62 58 46 43 42
Wind_Direction_850mb
193 203 210 211 218 248 257 239 244 232 245 303 270 274 271 272 274 266 262 263 264 265 263 260 258 254 254 253 253 251 247 242 236 233 233 233 234 235 235 237 236 234 232 230
191 223 219 230 220 226 228 232 238 258 272 286 287 282 278 267 261 259 260 263 261 262 261 259 257 255 255 252 253 253 251 244 240 239 239 238 239 238 238 238 238 237 235 232
204 194 216 212 209 216 227 235 246 260 282 272 290 285 265 250 250 251 250 249 253 251 256 262 262 257 255 255 251 251 250 248 246 246 240 240 238 239 239 238 236 235 236 235
222 203 164 200 220 214 230 228 245 255 272 268 62 293 279 275 261 243 247 243 251 257 257 262 267 264 258 263 262 258 256 254 251 249 244 242 240 240 241 239 238 236 233 234
195 195 193 200 206 198 219 180 232 246 250 274 260 269 254 262 261 248 251 249 248 254 257 267 278 286 287 280 280 276 269 260 257 253 250 247 245 245 246 243 242 239 236 234
222 166 205 199 193 196 157 149 138 194 234 256 226 225 265 247 255 268 251 248 253 256 272 287 297 293 289 293 289 284 274 268 264 261 257 252 252 250 241 239 241 242 238 234
195 204 167 165 171 192 185 168 176 209 215 246 206 218 250 297 286 248 257 274 276 275 283 287 294 292 295 298 297 293 283 278 274 268 261 259 255 253 246 242 243 242 240 237
196 206 199 182 194 182 198 186 195 215 219 268 199 230 253 250 231 251 271 283 286 285 285 285 290 294 301 311 307 302 294 283 281 269 264 262 260 253 246 241 242 244 244 244
200 226 187 194 185 173 193 218 211 311 134 280 238 257 272 253 247 254 270 287 291 295 300 300 302 306 296 315 309 309 303 294 286 273 261 260 260 251 246 244 243 241 244 247
186 193 267 181 199 213 193 169 190 217 230 238 249 256 253 279 281 283 285 300 297 301 305 305 307 303 292 297 301 305 305 298 291 281 270 253 257 257 250 243 240 239 244 245
182 222 144 172 201 194 190 187 220 212 226 242 267 259 256 271 275 286 300 288 293 298 301 301 299 295 293 291 300 302 302 299 293 279 267 258 250 250 250 239 236 235 240 241
194 224 191 198 173 228 219 210 200 214 214 232 249 263 278 286 289 291 289 294 301 300 291 289 288 292 295 296 297 296 304 311 305 289 267 255 249 243 240 238 233 231 236 239
160 190 178 195 234 193 221 218 225 229 247 243 234 264 280 286 287 286 293 299 292 290 290 293 290 286 285 286 290 293 291 298 305 296 270 250 244 237 236 236 231 228 234 234
165 200 214 220 140 178 211 216 219 220 229 242 240 259 278 279 276 298 294 291 287 287 296 292 290 288 287 285 284 294 294 294 298 295 274 249 240 237 234 231 229 227 230 231
188 226 225 245 254 203 214 225 222 221 230 232 255 248 264 271 287 284 289 289 292 295 297 295 295 292 287 283 282 290 298 296 299 289 274 250 239 237 232 229 227 225 229 230
198 231 215 242 237 239 251 244 228 225 235 242 250 256 255 274 279 281 284 287 297 298 297 300 301 296 288 282 283 293 295 295 297 284 275 252 238 236 231 226 224 223 225 224
183 182 164 226 211 214 250 243 231 232 235 231 238 247 259 262 272 278 286 299 295 297 298 301 301 301 291 281 279 290 292 294 293 281 271 253 240 236 231 227 223 222 223 219
187 184 162 153 150 210 258 21 216 222 232 226 240 252 255 266 271 277 295 291 291 295 304 308 301 305 300 288 290 294 287 287 284 275 267 244 240 236 229 225 226 222 221 221
196 174 171 181 207 308 286 222 189 179 244 222 230 245 257 266 279 288 288 291 299 305 308 310 311 307 306 299 295 286 285 281 274 268 262 239 236 233 231 233 227 218 215 212
189 194 191 153 215 230 337 163 192 157 266 206 221 239 252 273 273 291 310 307 314 316 316 317 313 304 307 304 292 286 280 274 269 261 253 230 230 241 239 233 220 214 204 205
167 173 198 196 224 257 214 165 132 201 273 155 204 226 248 250 275 298 306 314 319 316 317 316 313 301 311 293 285 281 268 260 262 245 223 229 223 216 225 215 209 204 195 194
169 173 196 180 215 256 175 194 209 241 256 278 236 270 285 293 294 304 311 312 322 320 321 318 306 296 308 285 279 271 254 248 239 229 204 219 206 198 202 198 193 186 184 182
196 196 188 192 213 141 186 208 215 241 253 259 277 286 299 300 302 307 313 315 317 316 319 317 304 291 292 282 281 260 245 236 214 200 188 194 182 180 173 183 186 182 184 182
235 191 209 141 248 220 218 225 234 242 248 265 278 289 297 302 306 310 314 313 315 315 314 313 305 290 284 287 271 242 230 213 213 197 180 176 179 176 174 181 180 178 179 178
173 144 212 240 262 249 235 239 244 252 261 270 280 287 296 302 305 308 311 312 313 312 310 304 297 293 283 285 257 227 215 208 197 183 171 172 176 175 172 174 174 177 177 182
188 208 195 225 224 226 258 246 249 255 262 270 284 289 293 303 307 307 306 310 310 309 306 301 296 289 271 266 251 215 207 202 204 190 171 172 176 176 169 167 161 167 171 172